Wind_Speed
7 7 7 6 5 5 5 5 5 5 4 4 3 2 3 3 3 3 3 2 2 2 3 3 4 4 5 5 5 5 6 7 7 8 8 8 8 8 8 8 8 8 8
7 6 6 6 5 4 4 4 5 4 3 2 2 2 2 2 3 3 3 3 3 3 3 4 4 5 5 5 6 7 7 8 9 9 9 9 9 9 9 9 9 10 10
5 5 5 4 4 3 3 3 3 2 1 1 2 2 2 2 2 3 4 5 5 4 5 5 5 6 6 6 7 8 8 9 9 10 10 10 10 11 11 11 11 11 11
4 4 3 3 3 2 1 1 1 1 1 1 2 2 3 3 3 3 4 5 5 5 5 6 6 7 7 7 7 8 9 9 10 10 10 11 11 12 12 12 12 12 12
3 3 3 2 2 2 1 0 1 1 1 2 3 3 3 3 4 5 5 5 5 6 6 6 7 8 8 8 9 9 10 11 11 11 11 11 12 12 12 12 12 13 13
2 2 2 2 1 1 1 1 2 2 2 3 3 4 5 5 5 5 5 5 5 6 7 7 7 8 9 9 10 10 11 12 12 12 12 12 12 12 12 13 13 13 13
2 1 1 1 1 1 2 2 2 2 3 3 4 4 5 5 5 5 5 5 6 7 8 8 9 9 10 10 11 11 12 12 12 13 13 13 13 13 13 13 13 14 14
3 2 1 1 2 2 2 2 2 3 4 4 4 4 4 5 5 5 6 7 7 8 9 10 10 10 11 11 11 12 12 13 13 13 14 14 14 14 14 14 14 14 14
4 3 3 3 3 2 3 2 3 3 3 4 4 5 5 5 6 6 7 8 8 9 9 10 11 11 11 12 12 13 13 13 13 14 14 15 15 15 15 15 15 16 16
5 5 4 4 3 3 3 3 3 4 4 5 5 5 5 5 6 7 8 8 9 10 10 10 10 10 11 12 12 13 14 14 14 15 15 15 15 15 15 15 15 16 17
5 5 5 5 5 5 4 4 4 5 5 6 7 7 7 7 7 8 8 9 9 9 10 10 10 11 11 12 13 13 14 15 15 15 15 15 15 15 16 16 17 17 17
4 4 4 5 5 6 5 5 5 6 6 7 7 7 7 8 8 8 9 9 10 11 11 11 11 12 13 13 14 14 15 15 16 16 16 16 17 17 17 18 18 18 18
4 4 5 5 6 6 6 6 7 7 7 7 7 8 8 8 9 9 10 11 11 12 12 12 13 13 14 15 15 16 17 17 18 18 18 18 19 19 19 19 19 19 20
4 4 5 5 7 7 7 7 8 8 8 8 8 8 9 9 10 11 12 12 12 13 13 13 14 14 15 16 17 18 18 18 19 19 19 19 20 20 19 19 19 20 20
5 5 6 6 8 8 9 9 9 9 9 9 10 10 10 11 12 13 13 14 14 14 14 15 15 16 17 18 18 20 20 20 21 21 21 21 21 20 20 21 21 21 22
5 6 7 8 9 9 10 10 10 11 11 11 11 11 12 12 13 14 15 16 16 16 16 16 17 18 18 19 20 21 21 22 22 23 22 22 22 22 22 22 22 23 23
8 8 9 9 10 11 11 12 12 12 12 13 13 13 13 14 15 16 16 17 17 17 17 18 19 20 20 20 21 21 22 23 24 24 23 23 23 23 23 23 23 24 24
10 10 10 11 12 12 13 13 13 13 13 13 13 14 14 15 16 17 17 18 19 19 19 20 21 21 22 22 23 23 24 24 25 25 24 23 23 23 24 24 24 24 24
11 12 13 14 14 14 15 15 15 15 14 15 15 16 16 17 18 18 18 19 20 20 21 21 22 22 23 24 25 25 25 25 26 24 24 24 24 24 24 25 25 25 25
14 14 15 16 16 16 17 17 17 16 17 17 17 18 18 19 20 20 20 21 21 22 22 22 23 24 25 25 26 26 25 25 25 24 24 24 25 25 25 25 25 26 26
16 16 17 18 18 18 19 18 18 18 18 18 18 19 20 21 22 22 22 23 23 23 24 24 25 26 27 27 27 27 27 26 25 25 25 24 25 25 26 26 26 26 27
18 18 18 19 20 20 21 20 20 20 19 19 20 21 22 23 23 23 23 24 25 25 26 26 26 27 27 27 28 28 27 26 26 26 26 25 25 25 25 26 27 27 28
21 21 21 22 22 22 23 23 23 23 22 22 22 22 23 24 24 24 24 25 26 26 27 28 28 28 29 29 29 28 28 27 27 27 27 26 26 27 27 27 28 28 28
24 23 24 24 24 25 25 26 26 26 24 24 24 24 24 25 26 26 26 27 28 29 29 30 29 30 30 30 29 29 29 29 28 28 29 29 28 29 29 29 29 30 30
27 27 26 26 26 26 26 27 27 27 27 26 27 28 27 28 28 29 29 29 30 30 31 30 29 30 31 31 30 29 30 30 29 29 29 30 30 30 30 30 30 30 30
29 29 29 29 28 28 28 29 29 30 29 29 30 30 30 30 31 31 31 31 31 31 31 30 31 31 31 31 32 30 30 30 30 30 31 31 31 31 30 30 31 31 31
Wind_Direction
121 122 130 134 131 131 134 140 142 137 138 148 167 190 202 201 205 202 213 232 236 242 260 268 277 277 270 272 280 289 287 284 284 286 289 286 284 285 282 280 282 285 286
117 116 114 119 124 126 133 143 139 133 142 157 176 190 218 230 232 233 237 247 252 256 266 279 284 279 287 289 290 292 292 292 284 285 288 286 280 280 280 281 283 285 287
120 114 109 107 115 122 131 140 143 148 160 192 211 227 236 240 238 245 244 253 260 267 277 283 282 285 290 294 294 295 294 297 291 289 291 288 280 279 282 281 281 284 286
110 107 101 101 106 109 108 140 167 184 207 239 254 259 258 253 256 257 256 263 267 271 278 285 289 288 289 294 297 300 301 301 296 291 293 294 288 282 282 281 281 284 285
96 106 106 99 95 81 59 115 249 257 263 275 280 270 266 267 274 277 278 276 280 285 287 284 287 291 290 295 295 295 296 299 298 295 295 296 296 289 285 282 282 285 284
88 99 105 98 93 53 345 293 273 275 276 286 287 278 274 274 277 280 281 284 290 298 296 295 295 294 293 293 296 296 295 294 295 294 294 294 294 292 288 285 282 282 283
77 92 87 63 40 15 344 312 299 288 282 283 286 288 286 281 275 275 276 286 291 296 298 299 299 297 293 294 295 296 298 298 296 295 293 295 294 293 292 290 290 284 283
58 64 72 56 27 356 348 332 302 292 284 284 284 288 289 285 281 283 276 283 292 293 296 300 299 296 295 295 297 298 298 299 300 301 299 295 293 292 291 290 290 289 288
70 68 74 51 25 7 354 349 344 332 313 307 301 298 292 286 292 291 286 287 290 291 296 300 300 299 298 301 301 303 304 303 303 304 303 299 295 293 292 291 289 288 288
64 64 64 52 40 27 10 355 346 337 331 327 318 312 306 297 298 297 292 289 293 296 298 304 305 302 302 303 301 300 301 302 302 301 301 300 297 294 293 293 290 288 288
57 55 53 47 42 28 10 354 344 338 338 334 327 323 315 308 303 300 297 297 299 301 304 303 304 303 301 301 300 300 300 300 304 302 300 300 297 296 295 294 294 292 289
45 42 34 30 25 16 12 360 345 343 337 331 327 322 316 312 312 307 305 306 306 306 306 306 304 304 305 306 304 300 299 300 301 300 295 294 294 294 294 293 293 293 292
24 21 19 16 10 1 356 351 344 335 329 326 326 324 322 320 317 315 313 309 306 305 307 306 304 303 304 304 304 301 299 299 298 296 296 293 292 293 293 290 292 293 292
358 354 352 354 350 346 344 341 341 336 331 329 329 326 323 318 314 313 311 311 309 308 307 306 305 304 302 303 303 302 299 297 297 296 296 294 294 293 294 293 293 293 292
334 334 334 334 336 336 333 330 329 329 328 325 320 317 316 314 312 311 311 310 308 307 307 307 306 305 303 302 301 300 299 298 296 295 295 293 293 292 291 291 291 292 291
320 323 323 323 324 325 327 324 322 320 318 319 315 312 314 313 310 310 309 308 306 306 306 305 306 305 305 304 304 302 299 299 298 296 295 294 292 291 290 290 290 291 291
315 316 318 321 321 320 321 321 320 318 313 313 312 310 309 308 308 308 307 306 306 305 303 304 304 305 306 307 308 305 302 300 297 297 296 294 294 292 291 290 291 291 291
301 303 307 311 313 313 313 312 312 312 309 309 308 308 307 307 307 307 305 304 304 303 303 303 303 305 305 306 306 304 303 300 299 296 296 296 295 294 292 291 291 292 291
296 298 299 303 305 305 307 309 306 307 305 307 307 308 307 306 304 305 305 304 302 302 302 302 303 304 303 303 304 304 303 301 300 299 297 296 296 294 293 293 292 291 291
293 293 295 298 299 300 301 302 303 303 303 302 302 305 305 305 304 303 303 302 301 300 300 300 301 302 303 303 304 302 302 301 302 302 301 300 298 296 295 294 294 293 293
290 290 293 295 296 297 296 295 295 297 300 299 302 303 303 304 304 302 301 301 301 301 301 301 302 303 304 303 303 302 301 301 303 302 301 300 299 298 296 295 295 294 294
290 291 292 294 294 295 292 294 291 293 296 298 300 302 303 305 305 303 302 302 301 301 300 301 301 302 302 303 302 301 300 301 302 302 300 300 300 300 298 297 296 295 294
289 290 291 292 292 291 291 293 292 290 292 294 298 301 302 303 304 304 303 303 303 302 301 301 300 302 302 302 301 301 301 300 300 300 299 298 298 299 299 297 295 295 295
288 288 289 292 293 293 293 291 291 289 289 291 294 297 299 300 301 302 304 304 303 302 301 301 301 302 302 301 300 300 301 301 299 299 298 297 296 297 298 296 294 294 295
286 285 287 289 290 290 292 293 292 290 289 290 293 294 296 298 299 300 301 303 303 302 301 302 302 303 303 302 299 298 298 298 298 298 297 296 295 295 296 296 294 294 294
284 284 285 286 286 287 287 289 291 291 289 290 292 293 296 297 296 297 299 301 303 302 301 300 300 302 302 302 300 297 297 296 297 296 296 295 295 294 295 295 294 293 293
Height
5880 5881 5882 5883 5884 5885 5886 5887 5888 5889 5890 5891 5893 5894 5895 5895 5896 5896 5897 5897 5898 5898 5898 5899 5899 5899 5899 5900 5900 5900 5900 5900 5900 5900 5899 5899 5899 5899 5899 5899 5899 5898 5898
5882 5883 5883 5884 5886 5887 5887 5888 5889 5890 5891 5892 5893 5893 5894 5894 5895 5895 5896 5897 5897 5897 5898 5898 5898 5898 5898 5899 5899 5899 5899 5898 5898 5898 5898 5897 5897 5897 5897 5897 5897 5896 5896
5883 5884 5885 5886 5887 5888 5888 5889 5890 5890 5891 5892 5892 5893 5893 5894 5894 5894 5895 5896 5896 5896 5897 5897 5897 5897 5897 5897 5897 5897 5897 5897 5896 5896 5896 5896 5895 5895 5895 5895 5894 5894 5893
5884 5885 5886 5887 5887 5888 5889 5889 5890 5891 5891 5892 5892 5892 5893 5893 5893 5894 5894 5895 5895 5895 5896 5896 5896 5896 5896 5896 5896 5896 5895 5895 5894 5894 5894 5893 5893 5892 5892 5892 5892 5891 5891
5885 5886 5887 5887 5888 5888 5889 5890 5890 5891 5891 5891 5891 5892 5892 5892 5893 5893 5893 5894 5894 5894 5895 5895 5895 5895 5894 5894 5894 5894 5894 5893 5892 5892 5892 5891 5890 5890 5889 5889 5889 5888 5888
5886 5887 5887 5888 5888 5889 5889 5890 5890 5890 5891 5891 5891 5891 5891 5892 5892 5892 5892 5893 5893 5893 5893 5893 5893 5893 5893 5892 5892 5892 5891 5891 5890 5890 5889 5888 5888 5887 5886 5886 5886 5885 5885
5887 5888 5888 5888 5889 5889 5889 5889 5890 5890 5890 5891 5891 5891 5891 5891 5891 5891 5891 5891 5892 5892 5892 5892 5891 5891 5891 5890 5890 5889 5889 5888 5888 5887 5886 5886 5885 5884 5883 5883 5882 5882 5881
5888 5888 5888 5889 5889 5889 5889 5889 5890 5890 5890 5890 5890 5890 5890 5891 5890 5890 5890 5890 5890 5890 5890 5890 5889 5889 5889 5888 5887 5887 5886 5886 5885 5884 5883 5883 5882 5881 5880 5880 5879 5878 5878
5889 5889 5889 5890 5890 5890 5890 5890 5890 5890 5890 5890 5890 5890 5889 5889 5889 5889 5889 5888 5889 5889 5888 5887 5887 5886 5886 5885 5885 5884 5883 5883 5882 5881 5880 5879 5878 5878 5877 5876 5876 5875 5874
5890 5890 5890 5890 5890 5890 5890 5890 5890 5889 5889 5889 5888 5888 5888 5888 5888 5888 5887 5887 5887 5886 5886 5885 5884 5884 5883 5883 5882 5881 5880 5880 5879 5878 5877 5876 5875 5874 5873 5873 5872 5871 5870
5891 5891 5891 5891 5891 5890 5890 5889 5889 5889 5888 5888 5887 5887 5886 5886 5886 5886 5886 5885 5884 5884 5883 5883 5882 5881 5881 5880 5879 5878 5877 5876 5875 5874 5873 5872 5871 5870 5869 5868 5867 5866 5865
5892 5892 5892 5892 5891 5891 5890 5889 5889 5888 5888 5887 5886 5886 5885 5885 5885 5884 5883 5883 5882 5882 5881 5880 5879 5878 5878 5877 5876 5875 5874 5873 5872 5871 5870 5868 5867 5866 5865 5864 5863 5862 5861
5893 5893 5892 5892 5891 5891 5890 5889 5889 5888 5887 5886 5885 5884 5884 5883 5883 5882 5882 5881 5880 5879 5879 5878 5877 5876 5875 5874 5873 5872 5871 5869 5868 5867 5866 5864 5863 5862 5861 5860 5858 5857 5856
5893 5892 5892 5892 5891 5891 5890 5889 5888 5887 5886 5885 5884 5883 5883 5882 5881 5881 5880 5879 5878 5877 5876 5875 5874 5873 5872 5870 5869 5868 5867 5865 5864 5863 5861 5860 5859 5857 5856 5855 5854 5852 5851
5892 5892 5892 5891 5891 5890 5889 5888 5887 5886 5885 5884 5883 5882 5881 5880 5879 5878 5877 5876 5876 5875 5874 5872 5871 5870 5868 5867 5865 5864 5862 5861 5859 5858 5856 5855 5853 5852 5851 5850 5848 5847 5846
5892 5891 5891 5890 5890 5889 5888 5887 5886 5885 5883 5882 5881 5880 5879 5878 5877 5876 5875 5874 5872 5871 5870 5869 5867 5866 5864 5862 5860 5859 5857 5856 5854 5853 5851 5849 5848 5847 5845 5844 5843 5841 5840
5890 5890 5889 5888 5888 5887 5886 5884 5883 5882 5881 5880 5879 5877 5876 5875 5874 5873 5871 5870 5869 5867 5866 5865 5863 5861 5860 5858 5856 5853 5852 5850 5849 5847 5846 5844 5842 5841 5839 5838 5836 5835 5833
5889 5888 5887 5886 5886 5885 5883 5882 5880 5879 5878 5877 5876 5874 5873 5871 5870 5869 5867 5866 5865 5863 5862 5860 5858 5856 5855 5853 5851 5848 5846 5845 5843 5841 5839 5838 5836 5835 5833 5831 5830 5828 5826
5886 5885 5885 5884 5883 5881 5880 5879 5877 5876 5875 5874 5872 5871 5870 5868 5866 5865 5863 5862 5860 5858 5857 5855 5853 5851 5850 5847 5845 5843 5841 5839 5837 5834 5833 5831 5830 5828 5826 5825 5823 5821 5819
5883 5882 5881 5880 5879 5878 5876 5875 5874 5872 5871 5870 5868 5867 5865 5864 5862 5860 5859 5857 5855 5853 5851 5850 5848 5846 5844 5842 5839 5837 5835 5833 5831 5828 5826 5824 5823 5821 5819 5817 5815 5814 5812
5879 5878 5877 5876 5875 5874 5872 5870 5869 5868 5866 5865 5864 5863 5861 5859 5857 5855 5854 5852 5850 5848 5846 5844 5842 5840 5838 5835 5833 5831 5828 5826 5824 5822 5819 5817 5815 5813 5811 5809 5808 5806 5804
5875 5874 5872 5871 5870 5869 5867 5865 5864 5863 5861 5860 5859 5858 5856 5854 5851 5849 5847 5845 5844 5841 5839 5838 5836 5833 5831 5829 5826 5824 5821 5819 5817 5815 5812 5810 5808 5806 5804 5802 5800 5798 5796
5869 5868 5867 5866 5864 5864 5862 5861 5859 5857 5856 5855 5853 5852 5850 5848 5846 5844 5842 5840 5837 5835 5833 5830 5828 5826 5824 5821 5819 5816 5814 5812 5810 5807 5804 5803 5801 5798 5796 5794 5792 5790 5788
5863 5862 5861 5859 5858 5857 5855 5854 5852 5851 5850 5848 5847 5845 5844 5842 5839 5837 5835 5833 5831 5828 5826 5823 5821 5818 5816 5813 5811 5809 5806 5804 5802 5799 5797 5795 5793 5791 5788 5786 5784 5782 5780
5856 5854 5853 5852 5851 5850 5848 5847 5845 5844 5843 5842 5840 5838 5836 5835 5833 5831 5829 5826 5824 5821 5818 5815 5812 5810 5807 5805 5802 5800 5798 5796 5794 5791 5789 5786 5784 5782 5780 5778 5775 5773 5771
5848 5847 5845 5844 5843 5842 5841 5839 5838 5836 5835 5834 5832 5830 5828 5826 5825 5823 5820 5818 5816 5813 5810 5808 5805 5802 5799 5796 5794 5791 5789 5787 5785 5783 5780 5778 5775 5773 5771 5769 5767 5764 5762